Simultaneous Nadir Overpasses (SNOs) Predictions

Prediction of SNOs near US between AQUA and NPP Satellite Orbit:

Table of predicted SNOs near US for the next 10.0 days since TLE Epoch: 4/10/2020
Index Date (AQUA) Time (AQUA) AQUA Lat,Lon Date (NPP) Time (NPP) NPP Lat,Lon Distance(km) Time Diff (sec)
1 04/11/2020 19:06:41 49.97, -92.55 04/11/2020 19:00:54 49.62, -94.40 138.32 347
2 04/11/2020 20:45:34 49.97,-117.27 04/11/2020 20:42:23 49.57,-119.75 183.62 191
3 04/17/2020 07:19:04 49.89, -76.02 04/17/2020 07:19:54 50.29, -78.20 161.70 50
4 04/17/2020 08:57:57 49.90,-100.74 04/17/2020 09:01:21 50.46,-103.50 206.16 204
5 04/19/2020 18:17:13 49.98, -80.20 04/19/2020 18:10:10 49.69, -81.74 115.53 423
6 04/19/2020 19:56:06 49.97,-104.92 04/19/2020 19:51:38 49.58,-107.07 160.77 268
7 04/19/2020 21:31:15 36.62,-124.99 04/19/2020 21:29:16 36.14,-127.55 235.26 119




NCC Satellite Simultaneous Nadir Overpasses (SNOs) Prediction Service
